EW0139 Weather Reports


time (UTC)temp
C
wind
direction
speed
KPH
gust
KPH
rain 1hr
cm
rain 24hr
cm
rain mn
cm
humidity
%
barometer
mb
20260506190753 10 278 4.8 20.9 0.00 0.00 0.00 29 1012.9
20260506185759 10 257 4.8 24.1 0.00 0.00 0.00 29 1013.2
20260506184759 10 258 17.7 17.7 0.00 0.00 0.00 29 1013.3
20260506183800 10 319 6.4 16.1 0.00 0.00 0.00 29 1013.4
20260506182741 10 238 8.0 17.7 0.00 0.00 0.00 30 1013.7
20260506181745 10 236 4.8 20.9 0.00 0.00 0.00 29 1014.0
20260506180807 10 269 8.0 8.0 0.00 0.00 0.00 30 1014.3
20260506175746 9 240 3.2 16.1 0.00 0.00 0.00 29 1014.7
20260506174750 9 259 6.4 20.9 0.00 0.00 0.00 29 1014.7
20260506173755 10 220 19.3 20.9 0.00 0.00 0.00 31 1014.9
20260506172754 9 279 8.0 20.9 0.00 0.00 0.00 30 1015.1
20260506171737 8 334 4.8 19.3 0.00 0.00 0.00 30 1015.3
20260506170741 8 300 14.5 17.7 0.00 0.00 0.00 30 1015.5
20260506165742 8 309 6.4 22.5 0.00 0.00 0.00 29 1015.5
20260506164746 8 235 4.8 14.5 0.00 0.00 0.00 30 1015.8
20260506163751 8 230 3.2 19.3 0.00 0.00 0.00 30 1015.9
20260506162752 7 268 11.3 16.1 0.00 0.00 0.00 33 1016.1
20260506161756 7 215 6.4 17.7 0.00 0.00 0.00 31 1016.3
20260506160759 6 291 11.3 14.5 0.00 0.00 0.00 34 1016.6
20260506155759 6 212 4.8 11.3 0.00 0.00 0.00 36 1016.6
20260506154740 6 242 9.7 16.1 0.00 0.00 0.00 36 1016.6
20260506153743 5 212 6.4 9.7 0.00 0.00 0.00 39 1016.8
20260506152747 5 237 4.8 9.7 0.00 0.00 0.00 40 1016.9
20260506151808 4 270 0.0 12.9 0.00 0.00 0.00 40 1017.0
20260506150810 4 231 4.8 6.4 0.00 0.00 0.00 42 1017.0
20260506145749 3 295 0.0 6.4 0.00 0.00 0.00 45 1017.0
20260506144750 2 294 3.2 6.4 0.00 0.00 0.00 49 1016.9
20260506143753 1 331 1.6 8.0 0.00 0.00 0.00 48 1017.0
20260506142754 1 294 3.2 4.8 0.00 0.00 0.00 51 1017.2
20260506141756 0 294 3.2 6.4 0.00 0.00 0.00 52 1017.3
20260506140756 0 309 0.0 6.4 0.00 0.00 0.00 54 1017.4
20260506135740 -1 310 0.0 4.8 0.00 0.00 0.00 58 1017.6
20260506134801 -2 310 0.0 4.8 0.00 0.00 0.00 62 1017.6
20260506133759 -2 310 3.2 4.8 0.00 0.00 0.00 64 1017.8
20260506132741 -3 309 3.2 3.2 0.00 0.00 0.00 65 1017.8
20260506131743 -4 310 0.0 0.0 0.00 0.00 0.00 68 1017.8
20260506130748 -5 310 0.0 0.0 0.00 0.00 0.00 70 1017.7
20260506125748 -6 310 0.0 0.0 0.00 0.00 0.00 71 1017.8
20260506124749 -7 310 0.0 0.0 0.00 0.00 0.00 73 1017.8
20260506123750 -8 310 0.0 0.0 0.00 0.00 0.00 75 1017.8
20260506122757 -8 310 0.0 0.0 0.00 0.00 0.00 75 1017.8
20260506121758 -8 310 0.0 0.0 0.00 0.00 0.00 75 1017.8
20260506120754 -9 310 0.0 3.2 0.00 0.00 0.00 76 1017.7
20260506115812 -9 309 1.6 1.6 0.00 0.00 0.00 75 1017.7
20260506114808 -9 309 0.0 0.0 0.00 0.00 0.00 75 1017.8
20260506113749 -8 310 0.0 0.0 0.00 0.00 0.00 74 1017.7
20260506112807 -8 310 0.0 0.0 0.00 0.00 0.00 73 1017.8
20260506111743 -8 309 0.0 0.0 0.00 0.00 0.00 72 1017.8
20260506110742 -8 309 1.6 3.2 0.00 0.00 0.00 72 1017.8
20260506105742 -8 309 0.0 1.6 0.00 0.00 0.00 73 1017.8
20260506104742 -8 310 0.0 4.8 0.00 0.00 0.00 72 1017.8
20260506103747 -8 310 3.2 4.8 0.00 0.00 0.00 72 1017.6
20260506102746 -8 310 0.0 1.6 0.00 0.00 0.00 73 1017.6
20260506101747 -8 310 0.0 0.0 0.00 0.00 0.00 71 1017.6
20260506100747 -7 309 0.0 3.2 0.00 0.00 0.00 71 1017.7
20260506095751 -7 310 1.6 4.8 0.00 0.00 0.00 72 1017.6
20260506094755 -7 309 3.2 4.8 0.00 0.00 0.00 73 1017.5
20260506093755 -8 310 3.2 3.2 0.00 0.00 0.00 74 1017.5
20260506092754 -8 310 0.0 1.6 0.00 0.00 0.00 74 1017.3
20260506091759 -7 310 0.0 0.0 0.00 0.00 0.00 73 1017.4
20260506090743 -7 309 0.0 0.0 0.00 0.00 0.00 73 1018.3
20260506085803 -7 310 0.0 1.6 0.00 0.00 0.00 73 1018.4
20260506084743 -7 310 0.0 3.2 0.00 0.00 0.00 71 1018.5
20260506083743 -7 310 3.2 4.8 0.00 0.00 0.00 73 1018.4
20260506082743 -7 309 0.0 3.2 0.00 0.00 0.00 73 1018.4
20260506081747 -7 310 0.0 1.6 0.00 0.00 0.00 72 1018.3
20260506080746 -7 310 0.0 0.0 0.00 0.00 0.00 72 1018.3
20260506072755 -6 309 0.0 0.0 0.00 0.00 0.00 71 1018.5
20260506071756 -6 310 0.0 0.0 0.00 0.00 0.00 70 1018.6
20260506070756 -6 309 0.0 3.2 0.00 0.00 0.00 68 1018.6
20260506061808 -5 310 0.0 3.2 0.00 0.00 0.00 64 1018.2
20260506060808 -5 310 0.0 4.8 0.00 0.00 0.00 64 1018.2
20260506050757 -3 309 0.0 3.2 0.00 0.00 0.00 56 1018.1
20260506044755 -3 310 3.2 3.2 0.00 0.00 0.00 56 1018.0
20260506043756 -2 309 0.0 3.2 0.00 0.00 0.00 56 1017.9
20260506042741 -2 309 1.6 4.8 0.00 0.00 0.00 54 1017.9
20260506041801 -1 309 1.6 3.2 0.00 0.00 0.00 53 1017.9
20260506040802 -1 309 0.0 3.2 0.00 0.00 0.00 51 1017.8
20260506035742 -1 310 1.6 4.8 0.00 0.00 0.00 49 1017.8
20260506034747 0 309 4.8 4.8 0.00 0.00 0.00 48 1017.8
20260506033807 0 310 3.2 6.4 0.00 0.00 0.00 46 1017.8
20260506032745 0 310 3.2 8.0 0.00 0.00 0.00 45 1017.8
20260506031745 1 310 4.8 6.4 0.00 0.00 0.00 43 1017.7
20260506030746 1 310 6.4 8.0 0.00 0.00 0.00 41 1017.6
20260506025750 2 309 6.4 8.0 0.00 0.00 0.00 40 1017.4
20260506024750 3 309 6.4 8.0 0.00 0.00 0.00 38 1017.3
20260506023753 3 307 4.8 6.4 0.00 0.00 0.00 37 1017.2
20260506022752 4 307 6.4 8.0 0.00 0.00 0.00 37 1017.1
20260506021757 5 307 9.7 16.1 0.00 0.00 0.00 34 1016.9
20260506020817 6 306 11.3 17.7 0.00 0.00 0.00 32 1016.9
20260506015817 7 309 16.1 24.1 0.00 0.00 0.00 31 1016.8
20260506014816 7 317 20.9 25.7 0.00 0.00 0.00 30 1016.7
20260506013754 7 303 19.3 27.4 0.00 0.00 0.00 30 1016.6
20260506012753 7 294 17.7 27.4 0.00 0.00 0.00 29 1016.6
20260506011800 8 295 19.3 29.0 0.00 0.00 0.00 28 1016.5
20260506010801 8 296 24.1 33.8 0.00 0.00 0.00 29 1016.4
20260506005802 8 304 17.7 27.4 0.00 0.00 0.00 29 1016.4
20260506004741 8 321 25.7 35.4 0.00 0.00 0.00 28 1016.4
20260506003741 8 311 32.2 35.4 0.00 0.00 0.00 29 1016.2
20260506002749 8 305 19.3 35.4 0.00 0.00 0.00 29 1016.4
20260506001751 8 290 19.3 37.0 0.00 0.00 0.00 30 1016.1
20260506000752 8 305 20.9 37.0 0.00 0.00 0.00 29 1016.3
20260505235751 8 292 27.4 38.6 0.00 0.00 0.00 29 1016.2
20260505234759 8 289 27.4 38.6 0.00 0.00 0.00 30 1016.2
20260505233757 8 302 20.9 33.8 0.00 0.00 0.00 30 1016.2
20260505232741 8 292 20.9 32.2 0.00 0.00 0.00 29 1016.1
20260505231740 7 323 20.9 37.0 0.00 0.00 0.00 30 1016.2
20260505230745 8 300 20.9 32.2 0.00 0.00 0.00 30 1016.2
20260505225746 7 323 20.9 43.5 0.00 0.00 0.00 30 1016.3
20260505224747 8 286 16.1 38.6 0.00 0.00 0.00 30 1016.1
20260505223748 8 292 19.3 37.0 0.00 0.00 0.00 28 1016.2
20260505222748 8 315 27.4 33.8 0.00 0.00 0.00 29 1016.2
20260505221752 8 287 27.4 33.8 0.00 0.00 0.00 31 1016.2
20260505220755 8 325 25.7 37.0 0.00 0.00 0.00 32 1016.1
20260505215755 7 300 14.5 37.0 0.00 0.00 0.00 32 1016.3
20260505214755 7 303 27.4 33.8 0.00 0.00 0.00 33 1016.4
20260505213743 7 290 22.5 35.4 0.00 0.00 0.00 33 1016.4
20260505212743 7 325 22.5 37.0 0.00 0.00 0.00 33 1016.6
20260505211743 7 275 30.6 49.9 0.00 0.00 0.00 35 1016.5
20260505210744 7 298 24.1 35.4 0.00 0.00 0.00 34 1016.7
20260505205744 6 290 20.9 35.4 0.00 0.00 0.00 35 1016.7
20260505204752 6 298 24.1 32.2 0.00 0.00 0.00 36 1016.8
20260505203750 6 325 19.3 35.4 0.00 0.00 0.00 36 1016.9
20260505202752 6 297 20.9 37.0 0.00 0.00 0.00 35 1016.9
20260505201751 6 285 17.7 32.2 0.00 0.00 0.00 36 1017.0
20260505200755 6 326 20.9 33.8 0.00 0.00 0.00 38 1017.0
20260505195756 5 295 24.1 27.4 0.00 0.00 0.00 39 1017.2
20260505194756 6 279 11.3 33.8 0.00 0.00 0.00 39 1017.3
20260505193818 5 289 33.8 33.8 0.00 0.00 0.00 41 1017.3
20260505192756 5 290 19.3 38.6 0.00 0.00 0.00 40 1017.2
20260505191802 5 304 27.4 33.8 0.00 0.00 0.00 39 1017.2